[[{"header":{"parameterUnit":"m.s-1","parameterCategory":1,"la1":30.2991,"la2":30.254,"lo1":-89.0895,"lo2":-89.0444,"dy":0.0017,"dx":0.0017,"nx":28,"ny":28,"refTime":"2026-01-02T09:00:00:Z","depth":0,"parameterNumber":2,"parameterNumberName":"U-component_of_WINDS"},"data":[0,0,0,0,0,0,0,0,0,0,0,0,0,0,0,0,0,0,0,0,0,0,0,0,0,0,0,0,0,0,0,0,0,0,0,0,0,0,0,0,0,0,0,0,0,0,0,0,0,0,0,0,0,0,0,0,0,0,3.0302,3.0303,0,3.0377,3.0377,3.0378,3.0359,3.0358,3.0357,3.0355,3.0436,3.0439,3.0443,0,0,0,0,0,0,0,0,0,0,0,0,0,3.0147,3.015,3.0302,3.0303,3.0304,3.0376,3.0378,3.0379,3.036,3.0358,3.0356,3.0354,3.0434,3.0439,3.0443,0,0,0,0,0,0,0,0,0,0,0,0,0,3.0218,3.0151,3.0302,3.0303,3.0304,3.0376,3.0378,3.0379,3.036,3.0358,3.0356,3.0354,3.0433,3.0438,3.0443,3.052,0,0,3.046,3.0462,0,0,0,0,0,0,0,0,3.0214,3.0223,3.0302,3.0303,3.0304,3.0356,3.0352,3.0426,3.0361,3.0339,3.0355,3.0353,3.0411,3.0418,3.0437,3.0524,3.0528,3.046,3.0463,3.0466,3.0467,0,0,0,0,0,0,0,3.0209,3.022,3.0332,3.0303,3.0305,3.0301,3.0309,3.0366,3.0387,3.0341,3.0339,3.0348,3.0412,3.0432,3.0439,3.0529,3.046,3.0465,3.0468,3.047,3.0683,3.0686,0,0,0,0,0,0,3.0202,3.0216,3.0329,3.0334,3.0252,3.0306,3.0314,3.0342,3.0386,3.0391,3.035,3.0347,3.0424,3.0433,3.0442,3.0535,3.0465,3.047,3.0473,3.0681,3.0684,3.0687,0,0,0,0,0,0,3.0199,3.0213,3.0326,3.0275,3.0289,3.0311,3.0342,3.0345,3.0365,3.0393,3.0397,3.0367,3.0423,3.0434,3.0501,3.0538,3.0473,3.0478,3.0678,3.0682,3.0685,3.0722,0,0,0,0,0,0,3.0195,3.0212,3.024,3.0275,3.0292,3.0383,3.0344,3.0348,3.0374,3.0371,3.041,3.0415,3.0422,3.0493,3.0506,3.0544,3.0482,3.0675,3.068,3.0684,3.0718,3.0727,3.0734,0,0,0,0,0,3.0189,3.0248,3.0242,3.0255,3.0327,3.0385,3.0394,3.04,3.0377,3.0406,3.0424,3.0413,3.0531,3.05,3.0515,3.0554,3.0673,3.0678,3.0684,3.0714,3.0725,3.0734,0,0,0,0,0,0,3.0218,3.0253,3.0246,3.0318,3.0348,3.0382,3.0419,3.0412,3.0451,3.0446,3.0453,3.0463,3.0531,3.0549,3.0514,3.0632,3.0599,3.0608,3.0617,3.0627,3.0636,3.063,3.0486,0,0,0,0,0,3.0232,3.0275,3.0304,3.0364,3.038,3.0397,3.0422,3.0424,3.0457,3.047,3.0493,3.0526,3.0571,3.06,3.0643,3.072,3.0729,3.0755,3.0763,3.077,3.0778,3.0821,3.0833,3.0705,3.0705,3.0705,0,0,3.0263,3.0287,3.0314,3.0371,3.0395,3.044,3.0408,3.0457,3.0491,3.0478,3.0542,3.056,3.0598,3.067,3.0703,3.0688,3.0815,3.0777,3.0782,3.0787,3.0828,3.084,3.0851,3.0709,3.0708,3.0708,0,0,3.0342,3.0364,3.0417,3.0442,3.0478,3.0489,3.0502,3.0537,3.0548,3.0612,3.0603,3.0644,3.0721,3.0748,3.0772,3.0862,3.0854,3.0876,3.0919,3.0961,3.0972,3.0981,3.1013,3.1025,3.0883,3.0883,3.0883,0,3.0376,3.0442,3.0446,3.0496,3.0521,3.051,3.0565,3.0589,3.0638,3.0657,3.0638,3.0734,3.0759,3.0838,3.086,3.088,3.0895,3.0871,3.0969,3.0979,3.0987,3.1018,3.1031,3.0886,3.0886,3.0885,3.0885,0,3.0482,3.0528,3.0567,3.0614,3.0644,3.0696,3.0709,3.0739,3.0739,3.0752,3.0818,3.0847,3.0896,3.0915,3.0915,3.0994,3.0984,3.0967,3.0935,3.1002,3.1031,3.1043,3.0889,3.0888,3.0888,3.0887,0,0,3.0581,3.0629,3.0643,3.0664,3.0704,3.074,3.0793,3.0839,3.0865,3.0899,3.0944,3.1009,3.0994,3.1022,3.1025,3.1062,3.1132,3.1042,3.1043,3.1058,3.1223,3.1235,3.1248,3.1127,3.1129,3.1131,3.122,0,3.0664,3.0754,3.0759,3.0842,3.0885,3.0876,3.0922,3.0952,3.0966,3.1006,3.1022,3.1068,3.1045,3.1061,3.1097,3.1116,3.1166,3.111,3.117,3.1172,3.1161,3.1264,3.1277,3.1359,3.1231,3.1233,3.1235,0,3.0772,3.0808,3.0895,3.0929,3.0947,3.0988,3.1031,3.1069,3.1104,3.1112,3.1142,3.1141,3.1196,3.1161,3.1237,3.1199,3.1224,3.1238,3.1241,3.1247,3.1208,3.1273,3.1385,3.1397,3.1253,3.1251,3.125,0,3.0836,3.0907,3.0968,3.0986,3.1027,3.1056,3.1075,3.1107,3.1135,3.1173,3.1191,3.1236,3.1261,3.1296,3.1307,3.1281,3.1384,3.135,3.1393,3.1393,3.1416,3.1414,3.1533,3.1431,3.1431,3.1431,3.143,0,3.0928,3.0981,3.0997,3.1035,3.1095,3.1101,3.1161,3.1178,3.1207,3.1249,3.1244,3.1284,3.1296,3.1338,3.1347,3.141,3.1421,3.143,3.1432,3.1431,3.143,3.1447,3.1442,3.1434,3.1433,3.1433,3.1432,0,3.1009,3.1022,3.1088,3.1121,3.1131,3.1174,3.1203,3.124,3.1253,3.1307,3.1319,3.1341,3.1391,3.1405,3.1465,3.1471,3.1545,3.1541,3.1533,3.1533,3.1576,3.1572,3.1711,3.173,3.1615,3.1616,3.1617,0,3.1067,3.1108,3.1145,3.1172,3.1192,3.1236,3.1264,3.1272,3.1302,3.1344,3.1377,3.1425,3.1464,3.1544,3.1566,3.1612,3.161,3.1656,3.1617,3.1615,3.1612,3.1609,3.1614,3.1664,3.1665,3.1666,3.1666,0,3.1169,3.1173,3.1213,3.1255,3.1289,3.1323,3.1356,3.1379,3.1392,3.1426,3.1476,3.1506,3.1567,3.1616,3.1662,3.1683,3.1678,3.1678,3.1691,3.169,3.1684,3.1688,3.1553,3.1675,3.1674,3.1674,3.1673,3.1673,3.1241,3.1277,3.1309,3.1354,3.1379,3.141,3.1446,3.1464,3.1505,3.1555,3.1557,3.1612,3.1646,3.1708,3.1732,3.1775,3.1762,3.178,3.1785,3.179,3.1793,3.1676,3.1784,3.1784,3.1784,3.1783,3.1783,0,3.1342,3.1362,3.1404,3.1449,3.1485,3.1475,3.1511,3.1542,3.159,3.1622,3.166,3.1719,3.1766,3.1792,3.1839,3.1869,3.1868,3.1882,3.188,3.1885,3.1802,3.1787,3.1882,3.1882,3.1882,3.1882,3.1882,3.1882,3.1399,3.146,3.1468,3.1542,3.1562,3.1615,3.1636,3.1665,3.1691,3.1755,3.1794,3.181,3.184,3.189,3.1934,3.194,3.1958,3.1973,3.1978,3.1901,3.1891,3.1881,3.1866,3.1977,3.1977,3.2058,3.2058,3.2059]},{"header":{"parameterUnit":"m.s-1","parameterCategory":1,"la1":30.2991,"la2":30.254,"lo1":-89.0895,"lo2":-89.0444,"dy":0.0017,"dx":0.0017,"nx":28,"ny":28,"refTime":"2026-01-02T09:00:00:Z","depth":0,"parameterNumber":3,"parameterNumberName":"V-component_of_WINDS"},"data":[0,0,0,0,0,0,0,0,0,0,0,0,0,0,0,0,0,0,0,0,0,0,0,0,0,0,0,0,0,0,0,0,0,0,0,0,0,0,0,0,0,0,0,0,0,0,0,0,0,0,0,0,0,0,0,0,0,0,5.661,5.6611,0,5.6769,5.6771,5.6773,5.6779,5.6777,5.6775,5.6773,5.6939,5.6945,5.6951,0,0,0,0,0,0,0,0,0,0,0,0,0,5.6312,5.6318,5.661,5.6612,5.6614,5.6769,5.6771,5.6773,5.6779,5.6777,5.6774,5.6772,5.6937,5.6944,5.6951,0,0,0,0,0,0,0,0,0,0,0,0,0,5.6454,5.632,5.6609,5.6635,5.6639,5.6769,5.6771,5.6774,5.6779,5.6776,5.6774,5.6771,5.6934,5.6943,5.6952,5.7068,0,0,5.6981,5.6985,0,0,0,0,0,0,0,0,5.6446,5.6465,5.6629,5.6633,5.6638,5.6751,5.6727,5.6873,5.678,5.6726,5.6773,5.6769,5.6879,5.6892,5.6929,5.7076,5.7083,5.6982,5.6987,5.6991,5.6994,0,0,0,0,0,0,0,5.6436,5.6458,5.6673,5.6632,5.6637,5.664,5.6656,5.6755,5.6817,5.6731,5.6731,5.675,5.6881,5.692,5.6933,5.7085,5.6981,5.699,5.6995,5.6999,5.7337,5.734,0,0,0,0,0,0,5.6421,5.645,5.6668,5.6678,5.6533,5.6647,5.6666,5.6718,5.6816,5.6828,5.6752,5.675,5.6905,5.6922,5.6939,5.7082,5.6991,5.7,5.7005,5.7334,5.7338,5.7341,0,0,0,0,0,0,5.6414,5.644,5.6661,5.6564,5.6592,5.6655,5.6713,5.6722,5.6762,5.6832,5.6843,5.6781,5.6904,5.6925,5.7036,5.7088,5.7004,5.7013,5.733,5.7335,5.734,5.7369,0,0,0,0,0,0,5.6406,5.6438,5.6482,5.6565,5.6597,5.6755,5.6716,5.6728,5.6777,5.6775,5.6862,5.6873,5.6903,5.7022,5.7045,5.7099,5.702,5.7325,5.7332,5.7338,5.7363,5.7374,5.7383,0,0,0,0,0,5.6395,5.6483,5.6484,5.651,5.6653,5.6758,5.6777,5.6809,5.6781,5.6827,5.6872,5.6871,5.7078,5.7033,5.7059,5.7117,5.7322,5.733,5.7337,5.7359,5.7372,5.7383,0,0,0,0,0,0,5.6405,5.6495,5.6496,5.6614,5.6678,5.6759,5.6817,5.6821,5.6895,5.689,5.6927,5.6947,5.7057,5.7098,5.7046,5.7235,5.7197,5.721,5.7204,5.7217,5.7227,5.7216,5.7028,0,0,0,0,0,5.6421,5.6498,5.6572,5.6669,5.6701,5.6753,5.68,5.6819,5.6888,5.6915,5.6969,5.7036,5.7117,5.7169,5.7247,5.7369,5.7389,5.7421,5.7431,5.7439,5.7451,5.752,5.7536,5.7366,5.7366,5.7366,0,0,5.6455,5.6513,5.6559,5.6672,5.6725,5.6805,5.6776,5.6862,5.6922,5.6928,5.7037,5.7078,5.7156,5.7273,5.7327,5.7311,5.7502,5.7449,5.7454,5.7462,5.753,5.7546,5.756,5.7372,5.7371,5.737,0,0,5.6557,5.6608,5.6696,5.6749,5.6828,5.6862,5.6883,5.6963,5.6991,5.71,5.7107,5.7179,5.7316,5.7372,5.7419,5.7543,5.7546,5.7567,5.762,5.7688,5.7701,5.7713,5.776,5.7776,5.7578,5.7578,5.7578,0,5.659,5.671,5.674,5.6826,5.6877,5.6885,5.6975,5.7025,5.7126,5.7161,5.714,5.7313,5.7366,5.7498,5.7528,5.7564,5.7591,5.7559,5.7696,5.7709,5.7721,5.7766,5.7783,5.7581,5.758,5.758,5.758,0,5.6747,5.683,5.6891,5.6988,5.7045,5.7132,5.7177,5.7231,5.7245,5.7282,5.7394,5.7457,5.7549,5.7581,5.7595,5.7715,5.7702,5.7688,5.7652,5.7739,5.7782,5.7799,5.7584,5.7583,5.7582,5.7582,0,0,5.6861,5.6974,5.6996,5.7041,5.713,5.7195,5.7283,5.7372,5.7419,5.7488,5.7565,5.7681,5.7669,5.7722,5.7742,5.7801,5.7899,5.778,5.7783,5.7802,5.8038,5.8049,5.8069,5.79,5.7903,5.7906,5.8032,0,5.6976,5.7132,5.7163,5.7299,5.7378,5.7387,5.7464,5.7527,5.7564,5.7637,5.7678,5.776,5.7737,5.7769,5.7828,5.7874,5.7947,5.7865,5.7973,5.7977,5.7956,5.8091,5.8103,5.8219,5.8049,5.8052,5.8054,0,5.713,5.7203,5.7348,5.7427,5.7461,5.753,5.7615,5.7684,5.7756,5.7779,5.7838,5.7852,5.7945,5.7902,5.8033,5.7977,5.8023,5.8052,5.8057,5.8071,5.8022,5.811,5.8257,5.8275,5.808,5.8078,5.8076,0,5.7202,5.7337,5.7441,5.7479,5.7573,5.7622,5.7663,5.7733,5.7785,5.7859,5.7894,5.7978,5.8025,5.809,5.8128,5.8092,5.8256,5.8216,5.828,5.8279,5.8316,5.8313,5.8474,5.8341,5.8341,5.834,5.834,0,5.7328,5.7417,5.7475,5.754,5.764,5.7674,5.7772,5.7813,5.7875,5.7949,5.7961,5.803,5.8074,5.815,5.8179,5.8284,5.8305,5.8327,5.8335,5.8328,5.8325,5.836,5.8354,5.8345,5.8344,5.8343,5.8342,0,5.7427,5.7469,5.7584,5.7664,5.7686,5.7756,5.7825,5.7889,5.7925,5.8019,5.8042,5.81,5.819,5.8233,5.8344,5.8364,5.8484,5.8485,5.846,5.8463,5.8526,5.852,5.8717,5.8745,5.859,5.8592,5.8593,0,5.7505,5.7574,5.7661,5.7711,5.7754,5.7834,5.7888,5.7924,5.7979,5.8067,5.8121,5.8211,5.8285,5.8429,5.8482,5.8567,5.8572,5.8634,5.8585,5.8576,5.8576,5.8572,5.858,5.8644,5.8646,5.8647,5.8648,0,5.7642,5.7659,5.7735,5.7819,5.7883,5.7951,5.8017,5.8058,5.8105,5.8166,5.8258,5.8316,5.843,5.852,5.861,5.8654,5.866,5.8663,5.8683,5.8678,5.8661,5.8674,5.8487,5.8659,5.8658,5.8657,5.8656,5.8656,5.7735,5.7797,5.7868,5.7953,5.8007,5.8069,5.8134,5.8178,5.8255,5.8351,5.8367,5.8465,5.8537,5.8658,5.8705,5.8783,5.8769,5.8797,5.8805,5.8812,5.8817,5.8647,5.88,5.8799,5.8799,5.8799,5.8799,0,5.7873,5.792,5.7997,5.8091,5.8158,5.8156,5.823,5.8287,5.8373,5.8439,5.8512,5.8619,5.8706,5.8766,5.8855,5.8907,5.8912,5.8929,5.8927,5.8938,5.8823,5.8798,5.8924,5.8924,5.8924,5.8924,5.8924,5.8923,5.7954,5.806,5.8086,5.8219,5.8265,5.8361,5.8404,5.8462,5.8515,5.8634,5.8706,5.8744,5.8809,5.8903,5.8984,5.8999,5.9033,5.9051,5.9066,5.8958,5.8945,5.8933,5.891,5.9057,5.9057,5.9175,5.9176,5.9177]}]]